• In United Kingdom
  • List of Countries
  • For 7 days
  • Water Temperature
  • Satellite Maps
  • Weather Map
  • Weather Widgets
  • user-avatar
    Login

    Hourly Weather Rhodes

    Today, 18 January, Thursday

    Time Temperature Precipitation Wind Pressure Humidity
    00:00 +15°C° 0.1 mm 6 mps 727 mmHg 73%
    01:00 +15°C° 0.1 mm 6 mps 726 mmHg 73%
    02:00 +15°C° 0 mm 6 mps 725 mmHg 73%
    03:00 +15°C° 0.5 mm 6 mps 724 mmHg 73%
    04:00 +15°C° 0.5 mm 7 mps 724 mmHg 74%
    05:00 +15°C° 0.5 mm 8 mps 723 mmHg 74%
    06:00 +14°C° 0.7 mm 11 mps 723 mmHg 72%
    07:00 +13°C° 0.7 mm 13 mps 723 mmHg 70%
    08:00 +13°C° 0 mm 15 mps 722 mmHg 66%
    09:00 +13°C° 0.4 mm 16 mps 722 mmHg 65%
    10:00 +11°C° 0.4 mm 17 mps 722 mmHg 64%
    11:00 +10°C° 0.4 mm 18 mps 722 mmHg 63%
    12:00 +10°C° 0.3 mm 18 mps 723 mmHg 64%
    13:00 +8°C° 0.3 mm 19 mps 723 mmHg 64%
    14:00 +8°C° 0.3 mm 19 mps 723 mmHg 65%
    15:00 +7°C° 0.3 mm 19 mps 724 mmHg 65%
    16:00 +7°C° 0.3 mm 19 mps 724 mmHg 65%
    17:00 +7°C° 0.3 mm 18 mps 725 mmHg 65%
    18:00 +6°C° 0.1 mm 18 mps 726 mmHg 64%
    19:00 +6°C° 0.1 mm 17 mps 727 mmHg 63%
    20:00 +6°C° 0.1 mm 17 mps 728 mmHg 63%
    21:00 +6°C° 0 mm 16 mps 728 mmHg 62%
    22:00 +6°C° 0 mm 15 mps 729 mmHg 61%
    23:00 +6°C° 0 mm 15 mps 730 mmHg 61%

    Tomorrow, 19 January, Friday

    Time Temperature Precipitation Wind Pressure Humidity
    00:00 +6°C° 0 mm 14 mps 730 mmHg 59%
    01:00 +6°C° 0 mm 14 mps 731 mmHg 57%
    02:00 +6°C° 0 mm 14 mps 731 mmHg 55%
    03:00 +7°C° 0 mm 13 mps 731 mmHg 54%
    04:00 +7°C° 0 mm 13 mps 732 mmHg 54%
    05:00 +7°C° 0 mm 12 mps 732 mmHg 53%
    06:00 +7°C° 0 mm 12 mps 732 mmHg 53%
    07:00 +7°C° 0 mm 11 mps 733 mmHg 52%
    08:00 +7°C° 0 mm 11 mps 733 mmHg 51%
    09:00 +7°C° 0 mm 11 mps 734 mmHg 51%
    10:00 +7°C° 0 mm 10 mps 734 mmHg 50%
    11:00 +8°C° 0 mm 10 mps 734 mmHg 49%
    12:00 +8°C° 0 mm 10 mps 734 mmHg 49%
    13:00 +8°C° 0 mm 9 mps 734 mmHg 48%
    14:00 +10°C° 0 mm 9 mps 734 mmHg 48%
    15:00 +10°C° 0 mm 9 mps 734 mmHg 48%
    16:00 +10°C° 0 mm 9 mps 734 mmHg 49%
    17:00 +11°C° 0 mm 8 mps 734 mmHg 49%
    18:00 +11°C° 0 mm 8 mps 734 mmHg 50%
    19:00 +11°C° 0 mm 7 mps 735 mmHg 51%
    20:00 +11°C° 0 mm 7 mps 735 mmHg 52%
    21:00 +11°C° 0 mm 6 mps 735 mmHg 54%
    22:00 +11°C° 0 mm 6 mps 735 mmHg 56%
    23:00 +12°C° 0 mm 5 mps 735 mmHg 58%

    Day after tomorrow, 20 January, Saturday

    Time Temperature Precipitation Wind Pressure Humidity
    00:00 +12°C° 0 mm 5 mps 735 mmHg 60%
    01:00 +12°C° 0 mm 5 mps 735 mmHg 62%
    02:00 +13°C° 0 mm 5 mps 736 mmHg 64%
    03:00 +13°C° 0 mm 4 mps 735 mmHg 64%
    04:00 +13°C° 0 mm 4 mps 735 mmHg 64%
    05:00 +13°C° 0 mm 4 mps 735 mmHg 64%
    06:00 +13°C° 0 mm 4 mps 735 mmHg 64%
    07:00 +13°C° 0 mm 3 mps 736 mmHg 63%
    08:00 +13°C° 0 mm 3 mps 736 mmHg 63%
    09:00 +13°C° 0 mm 3 mps 736 mmHg 63%
    10:00 +13°C° 0 mm 3 mps 736 mmHg 63%
    11:00 +13°C° 0 mm 3 mps 736 mmHg 63%
    12:00 +13°C° 0 mm 4 mps 736 mmHg 64%
    13:00 +14°C° 0 mm 4 mps 736 mmHg 66%
    14:00 +14°C° 0 mm 5 mps 735 mmHg 67%
    15:00 +14°C° 0 mm 5 mps 735 mmHg 68%
    16:00 +14°C° 0 mm 6 mps 735 mmHg 69%
    17:00 +14°C° 0 mm 6 mps 735 mmHg 70%
    18:00 +14°C° 0.1 mm 7 mps 735 mmHg 70%
    19:00 +14°C° 0.1 mm 7 mps 735 mmHg 70%
    20:00 +14°C° 0.1 mm 7 mps 736 mmHg 70%
    21:00 +14°C° 0.1 mm 7 mps 736 mmHg 70%
    22:00 +14°C° 0.1 mm 7 mps 736 mmHg 70%
    23:00 +14°C° 0.1 mm 7 mps 736 mmHg 70%

    21 January, Sunday

    Time Temperature Precipitation Wind Pressure Humidity
    00:00 +14°C° 0.1 mm 7 mps 735 mmHg 70%
    01:00 +14°C° 0.1 mm 7 mps 735 mmHg 71%
    02:00 +14°C° 0.1 mm 7 mps 735 mmHg 71%
    03:00 +14°C° 0.1 mm 7 mps 734 mmHg 71%
    04:00 +14°C° 0.1 mm 7 mps 734 mmHg 71%
    05:00 +13°C° 0.1 mm 8 mps 734 mmHg 71%
    06:00 +13°C° 0.2 mm 8 mps 733 mmHg 72%
    07:00 +13°C° 0.2 mm 9 mps 733 mmHg 72%
    08:00 +13°C° 0.2 mm 10 mps 733 mmHg 73%
    09:00 +13°C° 0.2 mm 10 mps 733 mmHg 73%
    10:00 +13°C° 0.2 mm 11 mps 732 mmHg 72%
    11:00 +13°C° 0.2 mm 12 mps 732 mmHg 72%
    12:00 +13°C° 0.2 mm 12 mps 731 mmHg 73%
    13:00 +13°C° 0.2 mm 12 mps 730 mmHg 73%
    14:00 +13°C° 0.2 mm 12 mps 729 mmHg 73%
    15:00 +13°C° 0.5 mm 13 mps 729 mmHg 73%
    16:00 +13°C° 0.5 mm 13 mps 728 mmHg 74%
    17:00 +13°C° 0.5 mm 13 mps 727 mmHg 74%
    18:00 +13°C° 1 mm 14 mps 727 mmHg 74%
    19:00 +13°C° 1 mm 14 mps 726 mmHg 75%
    20:00 +13°C° 1 mm 15 mps 726 mmHg 75%
    21:00 +13°C° 2 mm 14 mps 725 mmHg 73%
    22:00 +13°C° 2 mm 13 mps 724 mmHg 72%
    23:00 +13°C° 2 mm 12 mps 724 mmHg 70%

    22 January, Monday

    Time Temperature Precipitation Wind Pressure Humidity
    00:00 +13°C° 0.7 mm 11 mps 723 mmHg 68%
    01:00 +13°C° 0.7 mm 10 mps 723 mmHg 67%
    02:00 +13°C° 0.7 mm 8 mps 722 mmHg 65%
    03:00 +13°C° 0.2 mm 8 mps 722 mmHg 65%
    04:00 +14°C° 0.2 mm 7 mps 722 mmHg 66%
    05:00 +14°C° 0.2 mm 7 mps 721 mmHg 67%
    06:00 +12°C° 1.3 mm 7 mps 721 mmHg 71%
    07:00 +12°C° 1.3 mm 7 mps 721 mmHg 76%
    08:00 +11°C° 1.3 mm 7 mps 721 mmHg 80%
    09:00 +11°C° 2.4 mm 7 mps 721 mmHg 79%
    10:00 +11°C° 2.4 mm 7 mps 721 mmHg 77%
    11:00 +11°C° 2.4 mm 7 mps 721 mmHg 76%
    12:00 +11°C° 1 mm 7 mps 720 mmHg 75%
    13:00 +11°C° 1 mm 6 mps 720 mmHg 74%
    14:00 +12°C° 1 mm 5 mps 720 mmHg 73%
    15:00 +11°C° 0.4 mm 6 mps 720 mmHg 73%
    16:00 +11°C° 0.4 mm 7 mps 721 mmHg 74%
    17:00 +11°C° 0.4 mm 7 mps 721 mmHg 75%
    18:00 +11°C° 0 mm 7 mps 722 mmHg 73%
    19:00 +11°C° 0 mm 7 mps 722 mmHg 72%
    20:00 +12°C° 0 mm 7 mps 723 mmHg 70%
    21:00 +12°C° 0 mm 8 mps 723 mmHg 70%
    22:00 +12°C° 0 mm 8 mps 724 mmHg 71%
    23:00 +12°C° 0 mm 9 mps 724 mmHg 72%

    23 January, Tuesday

    Time Temperature Precipitation Wind Pressure Humidity
    00:00 +11°C° 0 mm 9 mps 724 mmHg 72%
    01:00 +11°C° 0 mm 9 mps 725 mmHg 73%
    02:00 +11°C° 0 mm 9 mps 725 mmHg 74%
    03:00 +10°C° 0 mm 9 mps 725 mmHg 73%
    04:00 +10°C° 0 mm 9 mps 725 mmHg 72%
    05:00 +9°C° 0 mm 10 mps 725 mmHg 72%
    06:00 +9°C° 0 mm 10 mps 726 mmHg 71%
    07:00 +9°C° 0 mm 10 mps 726 mmHg 71%
    08:00 +8°C° 0 mm 10 mps 727 mmHg 70%
    09:00 +8°C° 0 mm 10 mps 727 mmHg 69%
    10:00 +8°C° 0 mm 10 mps 727 mmHg 68%
    11:00 +8°C° 0 mm 10 mps 728 mmHg 67%
    12:00 +8°C° 0 mm 10 mps 728 mmHg 67%
    13:00 +8°C° 0 mm 10 mps 727 mmHg 66%
    14:00 +9°C° 0 mm 11 mps 727 mmHg 65%
    15:00 +9°C° 0 mm 11 mps 728 mmHg 64%
    16:00 +9°C° 0 mm 11 mps 728 mmHg 63%
    17:00 +9°C° 0 mm 11 mps 728 mmHg 62%
    18:00 +9°C° 0 mm 11 mps 728 mmHg 62%
    19:00 +8°C° 0 mm 11 mps 729 mmHg 62%
    20:00 +8°C° 0 mm 11 mps 729 mmHg 62%
    21:00 +8°C° 0 mm 10 mps 729 mmHg 62%
    22:00 +8°C° 0 mm 10 mps 729 mmHg 61%
    23:00 +8°C° 0 mm 10 mps 730 mmHg 61%
    Show more